CW7221 Weather Reports


time (UTC)temp
F
wind
direction
speed
knots
gust
knots
rain 1hr
in
rain 24hr
in
rain mn
in
humidity
%
barometer
mb
20260510120001 54 260 0.9 2.6 0.00 0.14 0.00 93 1013.3
20260510115501 54 276 0.9 2.6 0.00 0.14 0.00 93 1013.2
20260510115002 54 278 0.9 2.6 0.00 0.14 0.00 93 1013.3
20260510114501 53 266 0.9 2.6 0.00 0.14 0.00 93 1013.1
20260510114023 53 358 0.9 2.6 0.00 0.14 0.00 93 1013.0
20260510113501 53 70 0.0 1.7 0.00 0.14 0.00 93 1012.8
20260510113002 53 73 0.0 1.7 0.00 0.14 0.00 93 1012.7
20260510112523 53 31 0.9 1.7 0.00 0.14 0.00 93 1012.6
20260510112001 53 2 0.0 1.7 0.00 0.14 0.00 93 1012.6
20260510111501 53 111 0.0 1.7 0.00 0.14 0.00 93 1012.5
20260510111023 53 109 0.0 1.7 0.00 0.14 0.00 93 1012.5
20260510110502 53 350 0.0 1.7 0.00 0.14 0.00 93 1012.5
20260510110002 53 332 0.0 1.7 0.00 0.14 0.00 93 1012.6
20260510105502 53 311 0.0 1.7 0.00 0.14 0.00 93 1012.4
20260510105002 53 334 0.9 1.7 0.00 0.14 0.00 93 1012.5
20260510104502 53 116 0.9 1.7 0.00 0.14 0.00 93 1012.1
20260510104002 53 134 0.9 1.7 0.00 0.14 0.00 93 1011.8
20260510103502 52 139 0.0 1.7 0.00 0.14 0.00 93 1012.0
20260510103002 52 154 0.0 0.9 0.00 0.14 0.00 92 1012.2
20260510102502 52 165 0.9 1.7 0.00 0.14 0.00 92 1012.4
20260510102024 52 186 0.9 1.7 0.00 0.14 0.00 92 1012.4
20260510101502 52 205 0.0 1.7 0.00 0.14 0.00 92 1012.4
20260510101002 52 298 0.0 0.9 0.00 0.14 0.00 92 1012.2
20260510100502 52 311 0.0 1.7 0.00 0.14 0.00 93 1012.1
20260510100002 52 318 0.0 1.7 0.00 0.14 0.00 93 1012.0
20260510095502 52 282 0.0 1.7 0.00 0.14 0.00 93 1011.9
20260510095002 52 299 0.9 1.7 0.00 0.14 0.00 93 1011.9
20260510094502 52 310 0.9 1.7 0.00 0.14 0.00 93 1011.8
20260510094002 52 307 0.0 1.7 0.00 0.14 0.00 92 1011.8
20260510093502 52 292 0.0 1.7 0.00 0.14 0.00 92 1011.7
20260510093002 52 47 0.0 0.9 0.00 0.14 0.00 92 1011.7
20260510092502 52 37 0.0 0.9 0.00 0.14 0.00 92 1011.7
20260510092024 52 21 0.0 0.9 0.00 0.14 0.00 92 1011.8
20260510091502 52 17 0.0 1.7 0.00 0.14 0.00 92 1011.8
20260510091024 52 21 0.0 1.7 0.00 0.14 0.00 92 1011.8
20260510090524 52 110 0.0 0.9 0.00 0.14 0.00 92 1011.7
20260510090003 52 117 0.0 0.9 0.00 0.14 0.00 92 1011.5
20260510085503 52 114 0.0 0.9 0.00 0.14 0.00 92 1011.5
20260510085003 52 107 0.0 0.9 0.00 0.14 0.00 92 1011.5
20260510084503 52 106 0.0 1.7 0.00 0.14 0.00 92 1011.6
20260510084003 52 120 0.0 1.7 0.00 0.14 0.00 92 1011.6
20260510083503 52 142 0.9 2.6 0.00 0.14 0.00 92 1011.6
20260510083003 52 149 0.9 2.6 0.00 0.14 0.00 92 1011.6
20260510082503 52 147 1.7 2.6 0.00 0.14 0.00 92 1011.5
20260510082003 52 144 0.9 2.6 0.00 0.14 0.00 92 1011.5
20260510081503 52 137 0.9 1.7 0.00 0.14 0.00 92 1011.7
20260510081003 52 123 0.9 1.7 0.00 0.14 0.00 92 1011.8
20260510080503 51 134 0.9 2.6 0.00 0.14 0.00 92 1011.8
20260510080024 51 143 0.9 2.6 0.00 0.14 0.00 92 1011.9
20260510075525 51 134 0.9 1.7 0.00 0.14 0.00 92 1011.8
20260510075003 51 117 0.9 1.7 0.00 0.14 0.00 92 1011.8
20260510074503 51 126 0.9 1.7 0.00 0.14 0.00 92 1011.9
20260510074003 51 146 0.9 1.7 0.00 0.14 0.00 92 1012.0
20260510073521 51 163 0.9 1.7 0.00 0.14 0.00 92 1012.2
20260510073000 51 168 0.0 1.7 0.00 0.14 0.00 92 1012.2
20260510072459 51 139 0.9 1.7 0.00 0.14 0.00 92 1012.3
20260510071959 51 149 0.9 1.7 0.00 0.14 0.00 92 1012.2
20260510071521 51 287 0.9 2.6 0.00 0.14 0.00 92 1012.1
20260510071021 51 289 0.9 2.6 0.00 0.14 0.00 92 1012.1
20260510070500 50 326 0.9 2.6 0.00 0.14 0.00 92 1012.1
20260510070021 50 324 0.9 2.6 0.00 0.14 0.00 92 1012.4
20260510065500 50 130 0.0 0.9 0.00 0.14 0.00 92 1011.7
20260510065000 50 129 0.0 0.9 0.00 0.14 0.00 95 1011.5
20260510064500 50 125 0.0 1.7 0.00 0.14 0.00 91 1011.5
20260510064000 50 126 0.9 1.7 0.00 0.14 0.00 91 1011.4
20260510063521 50 127 0.9 1.7 0.00 0.14 0.00 91 1011.4
20260510063021 50 129 0.9 0.9 0.00 0.14 0.00 91 1011.5
20260510062521 49 122 0.0 0.9 0.00 0.14 0.00 91 1011.6
20260510062000 49 134 0.9 1.7 0.00 0.14 0.00 91 1011.6
20260510061521 49 145 0.0 1.7 0.00 0.14 0.00 91 1011.6
20260510061000 48 136 0.0 0.9 0.00 0.14 0.00 91 1011.7
20260510060500 48 111 0.0 0.9 0.00 0.14 0.00 91 1011.7
20260510060000 48 136 0.9 1.7 0.00 0.14 0.00 91 1011.7
20260510055500 48 142 0.9 1.7 0.00 0.14 0.00 90 1011.7
20260510055022 48 140 0.9 1.7 0.00 0.14 0.00 91 1011.9
20260510054500 47 293 0.0 0.9 0.00 0.14 0.00 90 1012.0
20260510054000 47 301 0.0 0.9 0.00 0.14 0.00 90 1012.0
20260510053500 47 333 0.0 0.9 0.00 0.14 0.00 90 1011.7
20260510053000 47 253 0.0 0.9 0.00 0.14 0.00 89 1011.5
20260510052500 47 274 0.0 0.9 0.00 0.14 0.00 90 1011.5
20260510052022 47 304 0.0 0.9 0.00 0.14 0.00 90 1011.5
20260510051522 47 292 0.0 0.9 0.00 0.14 0.00 90 1011.4
20260510051000 47 162 0.0 0.9 0.00 0.14 0.00 90 1011.4
20260510050500 47 117 0.0 0.9 0.00 0.14 0.00 90 1011.4
20260510050001 47 70 0.0 0.9 0.00 0.14 0.00 89 1011.4
20260510045500 47 67 0.0 0.9 0.00 0.14 0.00 89 1011.4
20260510045022 47 84 0.0 0.9 0.00 0.14 0.00 89 1011.4
20260510044501 47 94 0.0 0.9 0.00 0.14 0.00 89 1011.4
20260510044001 48 106 0.0 0.9 0.00 0.14 0.00 89 1011.5
20260510043501 48 98 0.0 0.9 0.00 0.14 0.00 89 1011.5
20260510043001 48 128 0.0 0.9 0.00 0.14 0.00 89 1011.5
20260510042522 48 111 0.9 0.9 0.00 0.14 0.00 89 1011.5
20260510042001 48 90 0.0 0.9 0.00 0.14 0.00 89 1011.5
20260510041522 48 90 0.0 0.9 0.00 0.14 0.00 89 1011.6
20260510041001 48 175 0.0 0.9 0.00 0.14 0.00 89 1011.7
20260510040522 49 193 0.0 0.9 0.00 0.14 0.00 89 1011.6
20260510040003 49 125 0.0 1.7 0.00 0.14 0.00 89 1011.4
20260510035501 49 96 0.9 1.7 0.00 0.14 0.14 89 1011.4
20260510035001 49 90 0.9 1.7 0.00 0.14 0.14 89 1011.5
20260510034501 49 116 0.0 1.7 0.00 0.14 0.14 88 1011.5
20260510034001 49 122 0.0 0.9 0.00 0.14 0.14 89 1011.5
20260510033501 49 63 0.0 1.7 0.00 0.14 0.14 88 1011.4
20260510033001 49 41 0.0 1.7 0.00 0.14 0.14 88 1011.4
20260510032501 49 113 0.0 1.7 0.00 0.14 0.14 88 1011.4
20260510032001 50 142 0.0 0.9 0.00 0.14 0.14 88 1011.3
20260510031501 50 137 0.0 0.9 0.00 0.14 0.14 88 1011.3
20260510031001 50 112 0.0 0.9 0.00 0.14 0.14 88 1011.2
20260510030501 50 147 0.0 0.9 0.00 0.14 0.14 88 1011.3
20260510030001 50 58 0.0 0.9 0.00 0.14 0.14 87 1011.4
20260510025501 50 61 0.0 0.9 0.00 0.14 0.14 88 1011.3
20260510025023 50 89 0.0 0.9 0.00 0.14 0.14 88 1011.4
20260510024523 50 103 0.0 0.9 0.00 0.14 0.14 88 1011.3
20260510024001 50 121 0.0 0.9 0.00 0.14 0.14 87 1011.3
20260510023501 51 105 0.0 0.9 0.00 0.14 0.14 88 1011.3
20260510023002 51 51 0.0 0.9 0.00 0.14 0.14 88 1011.2
20260510022502 51 73 0.0 0.9 0.00 0.14 0.14 87 1011.2
20260510022001 51 64 0.0 0.9 0.00 0.14 0.14 87 1011.2
20260510021502 51 87 0.0 0.9 0.00 0.14 0.14 87 1011.3
20260510021002 52 181 0.0 0.9 0.00 0.14 0.14 87 1011.2
20260510020502 52 190 0.0 1.7 0.00 0.14 0.14 87 1011.1
20260510020002 52 184 0.0 1.7 0.00 0.14 0.14 87 1011.2
20260510015502 52 87 0.0 0.9 0.00 0.14 0.14 86 1011.0
20260510015002 52 87 0.0 0.9 0.00 0.14 0.14 86 1011.0
20260510014502 52 87 0.0 0.9 0.00 0.14 0.14 86 1011.0
20260510014002 52 90 0.0 0.9 0.00 0.14 0.14 86 1011.0
20260510013523 53 123 0.0 0.9 0.00 0.14 0.14 85 1011.1
20260510013002 53 110 0.0 0.9 0.00 0.14 0.14 85 1011.0
20260510012502 53 97 0.0 0.9 0.00 0.14 0.14 85 1011.0
20260510012002 54 94 0.0 0.9 0.00 0.14 0.14 85 1010.9
20260510011502 54 113 0.0 0.9 0.00 0.14 0.14 84 1010.9
20260510011002 54 150 0.0 0.9 0.00 0.14 0.14 84 1010.9
20260510010502 54 125 0.9 1.7 0.00 0.14 0.14 84 1010.7
20260510010023 55 113 0.0 1.7 0.00 0.14 0.14 84 1010.7
20260510005523 55 121 0.0 1.7 0.00 0.14 0.14 84 1010.6
20260510005002 55 134 0.0 0.9 0.00 0.14 0.14 83 1010.6
20260510004502 56 127 0.0 0.9 0.00 0.14 0.14 83 1010.5
20260510004002 56 96 0.0 0.9 0.00 0.14 0.14 83 1010.4
20260510003502 56 76 0.0 0.9 0.00 0.14 0.14 83 1010.3
20260510003024 57 73 0.0 0.9 0.00 0.14 0.14 83 1010.3
20260510002502 57 114 0.0 0.9 0.00 0.14 0.14 82 1010.1
20260510002002 57 119 0.0 0.9 0.00 0.14 0.14 82 1010.2
20260510001502 58 131 0.0 0.9 0.00 0.14 0.14 82 1010.1
20260510001002 58 134 0.0 0.9 0.00 0.14 0.14 81 1010.0
20260510000502 59 125 0.0 0.9 0.00 0.14 0.14 80 1009.9
20260510000024 59 120 0.0 1.7 0.00 0.14 0.14 80 1009.9
20260509235502 59 127 0.9 1.7 0.00 0.14 0.14 80 1009.9
20260509235003 60 141 0.9 0.9 0.00 0.14 0.14 80 1009.9
20260509234503 60 143 0.9 1.7 0.00 0.14 0.14 80 1010.0
20260509234003 60 151 0.9 1.7 0.00 0.14 0.14 79 1009.9
20260509233503 60 184 0.9 2.6 0.00 0.14 0.14 79 1009.9
20260509233003 60 185 0.9 2.6 0.00 0.14 0.14 78 1009.9
20260509232503 60 186 0.9 2.6 0.00 0.14 0.14 78 1009.9
20260509232003 60 198 1.7 5.2 0.00 0.14 0.14 78 1009.8
20260509231503 60 197 1.7 5.2 0.00 0.14 0.14 78 1009.8
20260509231003 60 196 1.7 3.5 0.00 0.14 0.14 78 1009.8
20260509230504 60 197 0.9 1.7 0.00 0.14 0.14 79 1009.8
20260509230003 60 187 0.9 1.7 0.00 0.14 0.14 80 1009.9
20260509225503 60 193 0.9 2.6 0.00 0.14 0.14 80 1009.8
20260509225003 60 214 0.9 2.6 0.00 0.14 0.14 80 1009.7
20260509224503 60 184 0.9 2.6 0.00 0.14 0.14 80 1009.8
20260509224004 60 184 0.9 1.7 0.00 0.14 0.14 81 1009.8
20260509223503 60 305 0.9 3.5 0.00 0.14 0.14 82 1009.8
20260509223003 60 299 0.9 3.5 0.00 0.14 0.14 81 1009.8
20260509222500 60 216 0.9 3.5 0.00 0.14 0.14 81 1009.8
20260509222000 60 232 0.9 3.5 0.00 0.14 0.14 82 1010.0
20260509221500 60 289 0.9 2.6 0.00 0.14 0.14 83 1010.0
20260509221000 59 308 0.9 2.6 0.00 0.14 0.14 83 1010.0
20260509220500 59 316 0.9 2.6 0.00 0.14 0.14 83 1010.1
20260509220000 59 320 0.9 2.6 0.00 0.14 0.14 84 1010.1
20260509215500 59 317 0.9 2.6 0.00 0.14 0.14 84 1010.1
20260509215000 59 268 0.9 2.6 0.00 0.14 0.14 83 1010.1
20260509214500 59 193 0.9 3.5 0.00 0.14 0.14 83 1010.1
20260509214000 58 194 1.7 4.3 0.00 0.14 0.14 83 1010.1
20260509213500 58 194 0.9 4.3 0.00 0.14 0.14 83 1010.1
20260509213000 58 195 0.9 2.6 0.00 0.14 0.14 84 1010.1
20260509212500 58 208 1.7 3.5 0.00 0.14 0.14 83 1010.1
20260509212000 58 218 1.7 3.5 0.00 0.14 0.14 84 1010.1
20260509211500 58 205 1.7 4.3 0.00 0.14 0.14 84 1010.3
20260509211000 58 206 1.7 4.3 0.00 0.14 0.14 85 1010.3
20260509210500 58 204 1.7 3.5 0.00 0.14 0.14 85 1010.4
20260509210000 58 190 0.9 3.5 0.00 0.14 0.14 85 1010.5
20260509205500 58 188 0.9 3.5 0.00 0.14 0.14 85 1010.6
20260509205000 58 197 0.9 3.5 0.00 0.14 0.14 85 1010.5
20260509204500 58 263 0.9 1.7 0.00 0.14 0.14 86 1010.5
20260509204000 58 295 0.9 2.6 0.00 0.14 0.14 87 1010.5
20260509203522 58 298 0.9 2.6 0.00 0.14 0.14 87 1010.7
20260509203000 58 276 0.9 3.5 0.00 0.14 0.14 87 1010.8
20260509202500 58 258 0.9 3.5 0.00 0.14 0.14 87 1010.7
20260509202000 58 278 0.9 2.6 0.00 0.14 0.14 87 1010.7
20260509201500 57 289 0.9 2.6 0.01 0.14 0.14 87 1010.8
20260509201022 57 285 0.9 2.6 0.01 0.14 0.14 87 1010.8
20260509200522 57 267 0.9 1.7 0.01 0.14 0.14 87 1010.7
20260509200001 57 231 0.9 1.7 0.01 0.14 0.14 87 1010.6
20260509195500 57 224 0.0 1.7 0.01 0.14 0.14 88 1010.7
20260509195001 56 143 0.0 1.7 0.02 0.14 0.14 88 1010.7
20260509194501 56 203 0.9 2.6 0.02 0.14 0.14 88 1010.8
20260509194001 56 207 0.9 2.6 0.03 0.14 0.14 88 1010.8
20260509193501 56 194 0.9 2.6 0.03 0.14 0.14 88 1010.8
20260509193001 56 162 0.9 2.6 0.03 0.14 0.14 88 1011.0
20260509192501 56 144 0.9 2.6 0.04 0.14 0.14 88 1011.0
20260509192001 56 135 0.9 1.7 0.04 0.14 0.14 88 1011.1
20260509191501 56 127 0.9 1.7 0.03 0.13 0.13 88 1011.2
20260509191001 56 132 0.9 1.7 0.04 0.13 0.13 88 1011.2
20260509190522 56 140 0.9 1.7 0.04 0.13 0.13 88 1011.5
20260509190001 56 134 0.0 1.7 0.04 0.13 0.13 88 1011.7
20260509185501 56 166 0.0 1.7 0.04 0.13 0.13 88 1011.7
20260509185001 56 143 0.9 1.7 0.03 0.12 0.12 88 1011.9
20260509184501 56 126 0.9 1.7 0.03 0.12 0.12 88 1011.8
20260509184001 56 156 0.9 2.6 0.03 0.11 0.11 88 1011.8
20260509183501 56 177 0.9 2.6 0.03 0.11 0.11 88 1012.1
20260509183001 56 177 0.9 2.6 0.03 0.11 0.11 88 1012.0
20260509182501 56 181 0.9 2.6 0.02 0.10 0.10 87 1011.9
20260509182001 56 181 0.9 2.6 0.03 0.10 0.10 87 1011.9
20260509181522 56 184 1.7 3.5 0.04 0.10 0.10 87 1012.0
20260509181001 56 190 0.9 3.5 0.04 0.09 0.09 86 1012.0
20260509180501 56 180 0.9 2.6 0.05 0.09 0.09 86 1012.0
20260509180001 56 184 0.9 1.7 0.06 0.09 0.09 86 1012.0
20260509175501 57 235 0.9 1.7 0.07 0.09 0.09 89 1012.0
20260509175023 56 216 0.9 1.7 0.08 0.09 0.09 86 1011.9
20260509174501 56 160 0.0 1.7 0.08 0.09 0.09 86 1011.8
20260509174023 56 161 0.0 1.7 0.07 0.08 0.08 86 1011.8
20260509173501 56 282 0.9 3.5 0.07 0.08 0.08 86 1011.8
20260509173001 56 292 0.9 3.5 0.07 0.08 0.08 85 1011.8
20260509172501 57 287 0.9 2.6 0.07 0.08 0.08 85 1011.7
20260509172023 57 356 0.9 2.6 0.07 0.07 0.07 84 1011.7
20260509171523 57 350 0.9 2.6 0.06 0.06 0.07 84 1011.6
20260509171002 57 285 0.9 3.5 0.05 0.05 0.05 83 1011.5
20260509170501 58 299 0.9 3.5 0.04 0.04 0.04 83 1011.8
20260509170002 58 313 1.7 4.3 0.03 0.03 0.03 83 1012.0
20260509165523 59 299 1.7 4.3 0.02 0.02 0.02 84 1012.0
20260509165023 59 284 0.9 4.3 0.01 0.01 0.02 84 1012.1
20260509164502 59 229 0.9 2.6 0.01 0.01 0.01 84 1012.1
20260509164002 59 200 1.7 3.5 0.01 0.01 0.01 82 1012.1
20260509163502 59 191 0.9 3.5 0.01 0.01 0.01 83 1012.1
20260509163002 59 200 1.7 5.2 0.01 0.01 0.01 82 1012.1
20260509162523 59 210 1.7 5.2 0.01 0.01 0.01 80 1012.1
20260509162002 59 210 1.7 5.2 0.00 0.00 0.00 79 1012.2
20260509161502 60 201 1.7 5.2 0.00 0.00 0.00 79 1012.1
20260509161024 60 217 1.7 7.8 0.00 0.00 0.00 79 1012.1
20260509160523 60 204 1.7 7.8 0.00 0.00 0.00 78 1012.1
20260509160003 61 194 0.9 6.1 0.00 0.00 0.00 78 1012.1
20260509155502 60 207 0.9 3.5 0.00 0.00 0.00 78 1012.2
20260509155024 60 204 1.7 3.5 0.00 0.00 0.00 77 1012.2
20260509154502 60 200 1.7 3.5 0.00 0.00 0.00 77 1012.2
20260509154002 60 196 1.7 7.0 0.00 0.00 0.00 77 1012.3
20260509153502 59 206 1.7 7.0 0.00 0.00 0.00 78 1012.3
20260509153002 59 207 1.7 3.5 0.00 0.00 0.00 78 1012.2
20260509152502 59 200 1.7 4.3 0.00 0.00 0.00 78 1012.2
20260509152002 59 208 1.7 5.2 0.00 0.00 0.00 78 1012.3
20260509151503 59 215 2.6 5.2 0.00 0.00 0.00 78 1012.5
20260509151002 59 210 2.6 5.2 0.00 0.00 0.00 78 1012.2
20260509150502 58 209 2.6 5.2 0.00 0.00 0.00 79 1012.3
20260509150024 58 203 1.7 4.3 0.00 0.00 0.00 78 1012.3
20260509145502 58 181 0.9 3.5 0.00 0.00 0.00 79 1012.1
20260509145024 58 187 0.9 3.5 0.00 0.00 0.00 79 1012.0
20260509144503 59 189 1.7 3.5 0.00 0.00 0.00 79 1011.8
20260509144003 59 190 1.7 3.5 0.00 0.00 0.00 78 1012.0
20260509143503 59 183 1.7 3.5 0.00 0.00 0.00 78 1012.2
20260509143003 59 165 1.7 3.5 0.00 0.00 0.00 78 1012.1
20260509142503 58 183 0.9 3.5 0.00 0.00 0.00 78 1012.1
20260509142003 58 195 0.9 3.5 0.00 0.00 0.00 79 1012.1
20260509141524 58 196 0.9 3.5 0.00 0.00 0.00 78 1012.0
20260509141003 58 178 0.9 1.7 0.00 0.00 0.00 78 1012.0
20260509140503 58 161 0.9 1.7 0.00 0.00 0.00 78 1012.0
20260509140003 58 172 0.9 2.6 0.00 0.00 0.00 79 1012.0
20260509135503 58 168 0.9 2.6 0.00 0.00 0.00 78 1012.0
20260509135003 58 44 0.9 2.6 0.00 0.00 0.00 79 1012.0
20260509134525 58 82 0.9 1.7 0.00 0.00 0.00 79 1011.9
20260509134003 58 162 0.9 2.6 0.00 0.00 0.00 79 1011.9
20260509133503 58 158 0.9 2.6 0.00 0.00 0.00 79 1011.9
20260509133004 58 132 0.9 1.7 0.00 0.00 0.00 79 1011.8
20260509132503 58 137 0.9 2.6 0.00 0.00 0.00 79 1011.9
20260509131959 58 133 0.9 2.6 0.00 0.00 0.00 79 1012.0
20260509131459 58 114 0.9 3.5 0.00 0.00 0.00 80 1011.8
20260509130959 57 103 0.9 3.5 0.00 0.00 0.00 80 1011.8
20260509130459 57 98 0.9 2.6 0.00 0.00 0.00 80 1011.8
20260509125959 57 97 0.9 1.7 0.00 0.00 0.00 80 1011.9
20260509125500 57 102 0.9 1.7 0.00 0.00 0.00 80 1012.0
20260509125021 57 91 0.9 1.7 0.00 0.00 0.00 80 1011.9
20260509124500 56 90 0.9 1.7 0.00 0.00 0.00 80 1011.9
20260509124000 56 109 0.0 1.7 0.00 0.00 0.00 80 1011.9
20260509123521 56 101 0.0 1.7 0.00 0.00 0.00 80 1012.0
20260509123000 56 99 0.9 1.7 0.00 0.00 0.00 80 1012.0
20260509122500 56 86 0.9 1.7 0.00 0.00 0.00 80 1012.1
20260509122021 56 83 0.9 1.7 0.00 0.00 0.00 80 1012.1
20260509121500 55 86 0.9 1.7 0.00 0.00 0.00 80 1012.2
20260509121000 55 79 0.9 1.7 0.00 0.00 0.00 80 1012.3
20260509120500 55 85 0.0 1.7 0.00 0.00 0.00 80 1012.2